Location: Bli��� Lhota
(48.7570°N, 14.0120°E)
Time: 15:46:55
(UTC+00:00)

Cosmos 2150 Rocket - Pass Details

Date: 18 September 2020
Orbit: 749 x 808 km, 74.0° (Epoch: 24 October)

Event Time Altitude Azimuth Distance (km) Brightness Sun altitude
Rises 18:46:10 0° 187° (S) 3,259 7.1 -16.3°
Reaches altitude 10° 18:48:34 10° 184° (S) 2,345 6.3 -16.7°
Maximum altitude 18:53:47 56° 107° (ESE) 944 4.1 -17.5°
Drops below altitude 10° 18:59:06 10° 30° (NNE) 2,392 6.5 -18.3°
Sets 19:01:34 0° 27° (NNE) 3,332 7.3 -18.6°
